Simultaneous Nadir Overpasses (SNOs) Predictions

Prediction of SNOs between NOAA-20 and NOAA-19 Satellite Orbit:

Table of predicted SNOs for the next 14.0 days since TLE Epoch: 11/29/2019
Index Date (NOAA-20) Time (NOAA-20) Lat,Lon (NOAA-20) SZA (NOAA-20 ) Date (NOAA-19) Time (NOAA-19) Lat,Lon (NOAA-19) SZA (NOAA-19 ) Distance(km) Time Diff (sec)
1 12/12/2019 14:24:53 79.58, -71.29 104.24 12/12/2019 14:23:45 79.55, -74.09 104.52 56.55 68
2 12/12/2019 15:15:42 -79.72, 94.82 75.53 12/12/2019 15:14:37 -79.71, 94.93 75.52 2.35 65
3 12/12/2019 16:06:27 79.71, -97.81 104.46 12/12/2019 16:05:40 79.71, -97.92 104.49 2.45 47
4 12/12/2019 16:57:12 -79.72, 69.41 75.52 12/12/2019 16:56:38 -79.71, 69.34 75.51 2.36 34
5 12/12/2019 17:47:57 79.72,-123.22 104.48 12/12/2019 17:47:40 79.72,-123.21 104.49 0.84 17
6 12/12/2019 18:38:42 -79.73, 44.01 75.51 12/12/2019 18:38:38 -79.73, 44.05 75.51 0.88 4
7 12/12/2019 19:29:27 79.72,-148.62 104.49 12/12/2019 19:29:41 79.72,-148.79 104.50 3.50 14
8 12/12/2019 20:20:12 -79.73, 18.61 75.50 12/12/2019 20:20:39 -79.72, 18.47 75.51 3.12 27
9 12/12/2019 21:10:57 79.72,-174.02 104.50 12/12/2019 21:11:41 79.74,-174.08 104.50 1.80 44
10 12/12/2019 22:01:42 -79.73, -6.80 75.49 12/12/2019 22:02:39 -79.74, -6.83 75.50 0.60 57




NCC Satellite Simultaneous Nadir Overpasses (SNOs) Prediction Service
